Regional Weather Roundup
Issued by NWS Northern Indiana

Home | Current Version | Previous Version | Graphics & Text | Print | Product List | Glossary On
Versions: 1 2 3 4 5 6 7 8 9 10 11 12 13 14 15 16 17 18 19 20 21 22 23 24 25 26 27 28 29 30 31 32 33 34 35 36 37 38 39 40 41 42 43 44 45 46 47 48 49 50
000
ASUS43 KIWX 230200
RWRIWX

KIWX WEATHER ROUNDUP
NATIONAL WEATHER SERVICE NORTHERN INDIANA
1000 PM EDT MON MAY 22 2017

NOTE: "FAIR" INDICATES FEW OR NO CLOUDS BELOW 12,000 FEET WITH NO
SIGNIFICANT WEATHER AND/OR OBSTRUCTIONS TO VISIBILITY.

* THESE STATIONS ARE NOT UNDER NWS QUALITY CONTROL. THEY ALSO MAY NOT
  REPORT WEATHER SUCH AS PRECIPITATION OR FOG.

INZ001>027-230300-
NORTHERN INDIANA

CITY           SKY/WX    TMP DP  RH WIND       PRES   REMARKS
GARY*          CLOUDY    66  50  55 SW17      29.95S
MICHIGAN CITY* CLOUDY    64  46  52 SW14G21   29.95R
SOUTH BEND     CLOUDY    64  48  56 S13       29.95S
GOSHEN         CLOUDY    64  47  53 S10       29.97S
MONTICELLO*    CLOUDY    64  46  52 S3        29.96F
ANGOLA*        CLOUDY    63  55  77 S7        29.98S
FORT WAYNE     MOCLDY    62  49  62 S5        29.99F
PERU/GRISSOM   CLOUDY    62  53  72 S5        29.97F

$$
INZ028>050-230300-
CENTRAL INDIANA

CITY           SKY/WX    TMP DP  RH WIND       PRES   REMARKS
LAFAYETTE      CLOUDY    64  49  57 CALM      29.96F
KOKOMO*        CLOUDY    64  54  69 CALM      29.99F
MUNCIE*        CLOUDY    61  50  67 CALM      30.00S
INDIANAPOLIS   CLOUDY    67  44  43 CALM      29.98F

$$
MIZ043>046-050>051-056>058-064>065-071>073-077>080-230300-
SOUTHWEST LOWER MICHIGAN

CITY           SKY/WX    TMP DP  RH WIND       PRES   REMARKS
BATTLE CREEK   CLOUDY    65  48  54 S13       29.95R
BENTON HARBOR  CLOUDY    68  45  43 S10       29.92R
COLDWATER*     CLOUDY    64  46  53 S7        29.97S
HILLSDALE*     CLOUDY    59  46  63 S5        29.98S
HOLLAND        CLOUDY    65  46  50 SW14      29.90S
GRAND RAPIDS   MOCLDY    61  50  67 S8        29.90S
KALAMAZOO      CLOUDY    66  45  46 S15       29.94S
STURGIS*       MOCLDY    63  49  61 S9        29.96S
THREE RIVERS*  FAIR      65  47  53 S9        29.95S

$$
OHZ001>008-015>018-024>025-230300-
NORTHWEST OHIO

CITY           SKY/WX    TMP DP  RH WIND       PRES   REMARKS
DEFIANCE       CLEAR     61  45  55 CALM      29.99F
FINDLAY        CLEAR     60  49  66 S6        30.00S
TOLEDO EXPRESS CLEAR     56  50  80 S3        29.99R
TOLEDO METCALF CLEAR     62  49  62 S3        30.00R
LIMA           CLEAR     58  50  75 SE7       30.01S

$$
AND FOR LAKE MICHIGAN COASTAL AND OPEN LAKE BUOY OBSERVATIONS

STATION/POSITION TEMP    WIND        PRES    VSBY  WAVE
                 AIR SEA DIR/SP/G                  HT/PER
                 (F)     (DEG/KT/KT) (MB)    (MI)  (FT/S)
CALUMET HARBOR    64     200/  9/ 12 1013.1R
MICHIGAN CITY     62     230/ 20/ 21   N/A
BURNS HARBOR      64     230/ 16/ 23 1014.2R
SOUTH LAKE BUOY   50 45  180/ 10/ 10 1012.0          1
4 MI NW BRIDGMAN  62 54  240/ 14/ 19 1013.6R         2/ 3
MICHIGAN CITY     59 53  240/ 14/ 17   N/A           2/ 3

$$
&&



USA.gov is the U.S. government's official web portal to all federal, state and local government web resources and services.